Beaver Bay, MN

12:56 PM CDT on September 27, 2016 (GMT -0500)
Silver Bay Municipal

Weather History for KBFW - January, 2013

Change the Weather History Date:

Tuesday, January 1, 2013

  Actual Average Record
Temperature  
Mean Temperature 2 °F -  
Max Temperature 17 °F 19 °F 35 °F (2007)
Min Temperature -14 °F 2 °F -32 °F (1999)
Degree Days  
Heating Degree Days 64    
Moisture  
Dew Point -5 °F    
Average Humidity 67    
Maximum Humidity 85    
Minimum Humidity 41    
Precipitation  
Precipitation 0.00 in - - ()
Sea Level Pressure  
Sea Level Pressure 30.02 in    
Wind  
Wind Speed 2 mph (West)    
Max Wind Speed 9 mph    
Max Gust Speed 16 mph    
Visibility 10 miles    
Events Snow    
Averages and records for this station are not official NWS values.
T = Trace of Precipitation, MM = Missing Value Source: NWS Daily Summary

Daily Weather History Graph

Daily Weather History Graph

Search for Another Location

Airport or City:

Trip Planner

Search our weather history database for the weather conditions in past years. The results will help you decide how hot, cold, wet, or windy it might be!

Date:

Astronomy

Jan. 01, 2013 Rise Set
Actual Time 7:52 AM CST 4:26 PM CST
Civil Twilight 7:17 AM CST 5:02 PM CST
Nautical Twilight 6:38 AM CST 5:40 PM CST
Astronomical Twilight 6:01 AM CST 6:18 PM CST
Moon 9:17 PM CST (1/1) 9:46 AM CST (1/1)
Length of Visible Light 9h 45m
Length of Day
8h 34m
Waning Gibbous, 83% of the Moon is Illuminated
Jan 1
Waning Gibbous
Jan 4
Last Quarter
Jan 11
New
Jan 18
First Quarter
Jan 26
Full

Hourly Weather History & Observations

Time (CST) Temp. Windchill Dew Point Humidity Pressure Visibility Wind Dir Wind Speed Gust Speed Precip Events Conditions
12:13 AM -4.0 °F - -11.2 °F 71% 30.14 in 10.0 mi Calm Calm - N/A   Clear
12:33 AM -5.8 °F - -13.0 °F 71% 30.14 in 10.0 mi Calm Calm - N/A   Clear
12:53 AM -7.6 °F - -14.8 °F 71% 30.13 in 10.0 mi Calm Calm - N/A   Clear
1:13 AM -7.6 °F - -14.8 °F 71% 30.13 in 10.0 mi Calm Calm - N/A   Clear
1:33 AM -9.4 °F - -16.6 °F 71% 30.13 in 10.0 mi Calm Calm - N/A   Clear
1:53 AM -11.2 °F - -16.6 °F 77% 30.13 in 10.0 mi Calm Calm - N/A   Clear
2:13 AM -11.2 °F - -16.6 °F 77% 30.13 in 10.0 mi Calm Calm - N/A   Clear
2:33 AM -11.2 °F - -18.4 °F 70% 30.13 in 10.0 mi Calm Calm - N/A   Clear
2:53 AM -11.2 °F - -18.4 °F 70% 30.12 in 10.0 mi Calm Calm - N/A   Clear
3:13 AM -11.2 °F - -18.4 °F 70% 30.12 in 10.0 mi Calm Calm - N/A   Clear
3:33 AM -11.2 °F - -18.4 °F 70% 30.12 in 10.0 mi Calm Calm - N/A   Clear
3:53 AM -11.2 °F - -18.4 °F 70% 30.12 in 10.0 mi Calm Calm - N/A   Clear
4:13 AM -11.2 °F - -18.4 °F 70% 30.12 in 10.0 mi Calm Calm - N/A   Clear
4:33 AM -11.2 °F - -18.4 °F 70% 30.12 in 10.0 mi Calm Calm - N/A   Clear
4:53 AM -11.2 °F - -18.4 °F 70% 30.11 in 10.0 mi Calm Calm - N/A   Clear
5:13 AM -14.8 °F - -20.2 °F 77% 30.11 in 10.0 mi Calm Calm - N/A   Clear
5:33 AM -14.8 °F - -20.2 °F 77% 30.11 in 10.0 mi Calm Calm - N/A   Clear
5:53 AM -11.2 °F - -18.4 °F 70% 30.10 in 10.0 mi Calm Calm - N/A   Clear
6:13 AM -9.4 °F - -16.6 °F 71% 30.10 in 10.0 mi Calm Calm - N/A   Clear
6:33 AM -7.6 °F -18.8 °F -13.0 °F 77% 30.09 in 10.0 mi WNW 4.6 mph - N/A   Clear
7:13 AM -5.8 °F - -11.2 °F 77% 30.09 in 10.0 mi Calm Calm - N/A   Clear
7:33 AM -5.8 °F -18.4 °F -13.0 °F 71% 30.09 in 10.0 mi WNW 5.8 mph - N/A   Clear
8:13 AM -5.8 °F -14.5 °F -13.0 °F 71% 30.09 in 10.0 mi West 3.5 mph - N/A   Clear
8:33 AM -4.0 °F -16.3 °F -11.2 °F 71% 30.09 in 10.0 mi WNW 5.8 mph - N/A   Clear
8:53 AM -2.2 °F -14.2 °F -9.4 °F 71% 30.08 in 10.0 mi West 5.8 mph - N/A   Clear
9:13 AM -0.4 °F -10.4 °F -9.4 °F 66% 30.07 in 10.0 mi West 4.6 mph - N/A   Clear
9:33 AM 1.4 °F -8.3 °F -7.6 °F 66% 30.07 in 10.0 mi West 4.6 mph - N/A   Clear
9:53 AM 3.2 °F -6.2 °F -5.8 °F 66% 30.07 in 10.0 mi West 4.6 mph - N/A   Clear
10:13 AM 6.8 °F -0.1 °F -4.0 °F 61% 30.07 in 10.0 mi West 3.5 mph - N/A   Clear
10:33 AM 8.6 °F -1.3 °F -5.8 °F 52% 30.06 in 10.0 mi West 5.8 mph - N/A   Clear
10:53 AM 8.6 °F 0.1 °F -5.8 °F 52% 30.05 in 10.0 mi WSW 4.6 mph - N/A   Clear
11:13 AM 10.4 °F 2.2 °F -4.0 °F 52% 30.03 in 10.0 mi West 4.6 mph - N/A   Clear
11:33 AM 12.2 °F -0.2 °F -5.8 °F 45% 30.02 in 10.0 mi West 9.2 mph - N/A   Clear
11:53 AM 12.2 °F 2.9 °F -4.0 °F 48% 30.01 in 10.0 mi WSW 5.8 mph - N/A   Clear
12:13 PM 15.8 °F 6.1 °F -2.2 °F 45% 29.99 in 10.0 mi West 6.9 mph - N/A   Clear
12:33 PM 15.8 °F 5.1 °F -4.0 °F 41% 29.98 in 10.0 mi WSW 8.1 mph - N/A   Clear
12:53 PM 15.8 °F 6.1 °F -4.0 °F 41% 29.97 in 10.0 mi WSW 6.9 mph - N/A   Clear
1:13 PM 17.6 °F 8.2 °F -2.2 °F 42% 29.96 in 10.0 mi WSW 6.9 mph - N/A   Clear
1:33 PM 17.6 °F 9.3 °F -2.2 °F 42% 29.95 in 10.0 mi West 5.8 mph - N/A   Clear
1:53 PM 17.6 °F 6.4 °F -2.2 °F 42% 29.94 in 10.0 mi WSW 9.2 mph - N/A   Clear
2:13 PM 17.6 °F 9.3 °F -0.4 °F 45% 29.94 in 10.0 mi West 5.8 mph - N/A   Clear
2:33 PM 15.8 °F 5.1 °F -0.4 °F 49% 29.94 in 10.0 mi WSW 8.1 mph - N/A   Clear
2:53 PM 15.8 °F 8.6 °F 1.4 °F 53% 29.95 in 10.0 mi WSW 4.6 mph - N/A   Clear
3:13 PM 14.0 °F 2.9 °F 1.4 °F 57% 29.94 in 10.0 mi West 8.1 mph - N/A   Clear
3:33 PM 12.2 °F 4.3 °F 1.4 °F 62% 29.95 in 10.0 mi West 4.6 mph - N/A   Clear
3:53 PM 12.2 °F 4.3 °F 1.4 °F 62% 29.96 in 10.0 mi West 4.6 mph 16.1 mph N/A Snow Light Snow
4:13 PM 10.4 °F 0.8 °F 1.4 °F 67% 29.96 in 7.0 mi West 5.8 mph - N/A Snow Light Snow
4:33 PM 10.4 °F 4.0 °F 1.4 °F 67% 29.96 in 7.0 mi West 3.5 mph - N/A Snow Light Snow
4:53 PM 10.4 °F 4.0 °F -0.4 °F 62% 29.96 in 10.0 mi West 3.5 mph - N/A Snow Light Snow
5:13 PM 8.6 °F 2.0 °F 1.4 °F 73% 29.96 in 10.0 mi West 3.5 mph - N/A Snow Light Snow
5:33 PM 8.6 °F - 1.4 °F 73% 29.96 in 7.0 mi Calm Calm - N/A Snow Light Snow
5:53 PM 8.6 °F - 1.4 °F 73% 29.96 in 10.0 mi Calm Calm - N/A Snow Light Snow
6:14 PM 8.6 °F 2.0 °F 1.4 °F 73% 29.96 in 10.0 mi WSW 3.5 mph - N/A Snow Light Snow
6:33 PM 8.6 °F - 1.4 °F 73% 29.96 in 10.0 mi Calm Calm - N/A Snow Light Snow
6:53 PM 8.6 °F 2.0 °F -0.4 °F 67% 29.96 in 10.0 mi WSW 3.5 mph - N/A Snow Light Snow
7:13 PM 8.6 °F - 1.4 °F 73% 29.96 in 10.0 mi Calm Calm - N/A Snow Light Snow
7:33 PM 8.6 °F - 1.4 °F 73% 29.96 in 7.0 mi Calm Calm - N/A Snow Light Snow
7:53 PM 10.4 °F - 3.2 °F 73% 29.95 in 7.0 mi Calm Calm - N/A Snow Light Snow
8:13 PM 10.4 °F - 3.2 °F 73% 29.95 in 10.0 mi Calm Calm - N/A   Mostly Cloudy
8:33 PM 10.4 °F - 3.2 °F 73% 29.94 in 7.0 mi Calm Calm - N/A Snow Light Snow
8:53 PM 10.4 °F 4.0 °F 5.0 °F 79% 29.94 in 10.0 mi WSW 3.5 mph - N/A Snow Light Snow
9:13 PM 12.2 °F - 5.0 °F 73% 29.93 in 10.0 mi Calm Calm - N/A   Scattered Clouds
9:33 PM 12.2 °F - 6.8 °F 79% 29.93 in 10.0 mi Calm Calm - N/A   Scattered Clouds
9:53 PM 12.2 °F - 6.8 °F 79% 29.93 in 10.0 mi Calm Calm - N/A   Mostly Cloudy
10:13 PM 12.2 °F - 6.8 °F 79% 29.93 in 10.0 mi Calm Calm - N/A   Mostly Cloudy
10:33 PM 12.2 °F - 6.8 °F 79% 29.93 in 10.0 mi Calm Calm - N/A   Scattered Clouds
10:53 PM 12.2 °F - 6.8 °F 79% 29.93 in 10.0 mi Calm Calm - N/A   Scattered Clouds
11:13 PM 12.2 °F - 6.8 °F 79% 29.93 in 10.0 mi Calm Calm - N/A   Mostly Cloudy
11:33 PM 12.2 °F 6.1 °F 6.8 °F 79% 29.92 in 7.0 mi SSW 3.5 mph - N/A   Mostly Cloudy
11:53 PM 12.2 °F - 8.6 °F 85% 29.92 in 7.0 mi Calm Calm - N/A   Scattered Clouds